This is the latest recevied weather packets stored in our database for station/object KE0PRS. If no packets are shown the sender has not sent any weather packets the latest 10 day(s).
| Time | Temp. | Humidity | Pressure | Rain* | Wind** | Luminosity | Snow |
|---|---|---|---|---|---|---|---|
| 1787433503 | 33.33° C | 45% | 1019.5 hPa | 0 mm | - | 595 W/m² | - |
| 1787433198 | 33.89° C | 44% | 1019.6 hPa | 0 mm | - | 607 W/m² | - |
| 1787432895 | 33.33° C | 46% | 1019.7 hPa | 0 mm | - | 618 W/m² | - |
| 1787432590 | 33.33° C | 46% | 1019.8 hPa | 0 mm | - | 626 W/m² | - |
| 1787432289 | 33.33° C | 45% | 1019.7 hPa | 0 mm | - | 638 W/m² | - |
| 1787431985 | 32.78° C | 46% | 1019.8 hPa | 0 mm | - | 653 W/m² | - |
| 1787431684 | 33.33° C | 46% | 1019.8 hPa | 0 mm | - | 663 W/m² | - |
| 1787431379 | 33.33° C | 45% | 1020.1 hPa | 0 mm | - | 672 W/m² | - |
| 1787431076 | 32.78° C | 47% | 1020 hPa | 0 mm | - | 678 W/m² | - |
| 1787430772 | 33.33° C | 46% | 1020.1 hPa | 0 mm | - | 690 W/m² | - |
| 1787430467 | 32.78° C | 47% | 1020.2 hPa | 0 mm | - | 697 W/m² | - |
| 1787430165 | 32.78° C | 48% | 1020.3 hPa | 0 mm | - | 705 W/m² | - |
| 1787429865 | 32.22° C | 49% | 1020.4 hPa | 0 mm | - | 713 W/m² | - |
| 1787429564 | 32.22° C | 48% | 1020.4 hPa | 0 mm | - | 720 W/m² | - |
| 1787429261 | 32.78° C | 47% | 1020.6 hPa | 0 mm | - | 724 W/m² | - |
| 1787428957 | 32.78° C | 48% | 1020.6 hPa | 0 mm | - | 733 W/m² | - |
| 1787428652 | 32.22° C | 49% | 1020.4 hPa | 0 mm | - | 737 W/m² | - |
| 1787428348 | 32.22° C | 49% | 1020.6 hPa | 0 mm | - | 746 W/m² | - |
| 1787428048 | 32.22° C | 49% | 1020.4 hPa | 0 mm | - | 751 W/m² | - |
| 1787427743 | 31.67° C | 50% | 1020.4 hPa | 0 mm | - | 756 W/m² | - |
| 1787427438 | 31.67° C | 50% | 1020.6 hPa | 0 mm | - | 762 W/m² | - |
| 1787427135 | 31.67° C | 51% | 1020.8 hPa | 0 mm | - | 763 W/m² | - |
| 1787426830 | 32.22° C | 49% | 1020.6 hPa | 0 mm | - | 769 W/m² | - |
| 1787426525 | 32.22° C | 50% | 1020.6 hPa | 0 mm | - | 772 W/m² | - |
| 1787426222 | 31.67° C | 51% | 1020.8 hPa | 0 mm | - | 776 W/m² | - |
* Rain latest hour (hover to see other rain measurements)
** Current wind speed in m/s (hover to see current wind gust speed)